Regional Weather Roundup
Issued by NWS

Home | Current Version | Previous Version | Text Only | Print | Product List | Glossary Off
Versions: 1 2 3 4 5 6 7 8 9 10 11 12 13 14 15 16 17 18 19 20 21 22 23 24 25 26 27 28 29 30 31 32 33 34 35 36 37 38 39 40 41 42 43 44 45 46 47 48 49 50

000
ASUS43 KLOT 302000
RWRIL

ILLINOIS REGIONAL WEATHER ROUNDUP
NATIONAL WEATHER SERVICE CHICAGO/ROMEOVILLE IL
300 PM CDT SUN AUG 30 2015

NOTE: "FAIR" INDICATES FEW OR NO CLOUDS BELOW 12,000 FEET WITH NO
SIGNIFICANT WEATHER AND/OR OBSTRUCTIONS TO VISIBILITY.

* THESE STATIONS ARE NOT UNDER NWS QUALITY CONTROL. THEY ALSO MAY NOT
  REPORT WEATHER SUCH AS PRECIPITATION OR FOG.

ILZ001-002-007-009-015-016-024-302100-
NORTHWEST ILLINOIS

CITY           SKY/WX    TMP DP  RH WIND       PRES   REMARKS
MOLINE         SUNNY     79  65  62 CALM      30.04F HX  81
$$

ILZ003-004-008-010-011-017-018-302100-
NORTH CENTRAL ILLINOIS

CITY           SKY/WX    TMP DP  RH WIND       PRES   REMARKS
ROCKFORD       NOT AVBL
$$

ILZ005-006-012>014-019>023-302100-
NORTHEAST ILLINOIS

CITY           SKY/WX    TMP DP  RH WIND       PRES   REMARKS
CHICAGO-OHARE  PTSUNNY   74  61  63 CALM      30.05F
CHICAGO-MIDWAY PTSUNNY   78  62  57 W5        30.04F HX  80
AURORA         PTSUNNY   76  64  66 SW3       30.06F
WAUKEGAN       NOT AVBL
DUPAGE AIRPORT CLOUDY    75  62  64 W6        30.05F
WHEELING       CLOUDY    72  62  71 SE5       30.07F
NORTHERLY ISL    N/A     70  64  81 N7          N/A
$$

LMZ740>746-302100-
SOUTHERN LAKE MICHIGAN

STATION/POSITION SKY/WX   TEMP    WIND        PRES    VSBY  WAVE
                          AIR SEA DIR/SP/G                  HT/PER
                          (F)     (DEG/KT/KT) (MB)    (MI)  (FT/S)
SOUTHERN BUOY              66 69  320/  8/  8 1018.0R
WILMETTE HARBOR            62 60  190/  4/  6   N/A           1/ 3
HARRISON CRIB              64      10/  9/ 10   N/A
BURNHAM HARBOR             68      10/  8/  9   N/A
BURNS HARBOR               69     330/  4/  6 1018.6F
MICHIGAN CITY              70     290/  7/  7   N/A
MICHIGAN CITY 6N           69 71  320/  8/  8   N/A           1/ 3
ST. JOSEPH                 69 71  320/ 10/ 12   N/A           1/ 2
$$

ILZ025>027-034>036-040-047-049-050-058-095>099-302100-
WEST-CENTRAL ILLINOIS

CITY           SKY/WX    TMP DP  RH WIND       PRES   REMARKS
$$

ILZ028>032-037-038-041>044-048-051>054-059>061-302100-
CENTRAL ILLINOIS

CITY           SKY/WX    TMP DP  RH WIND       PRES   REMARKS
PEORIA         NOT AVBL
SPRINGFIELD    MOSUNNY   87  70  56 NW5       30.02F HX  92
TAYLORVILLE    NOT AVBL
$$

ILZ033-039-045-046-055>057-062-063-302100-
EAST-CENTRAL ILLINOIS

CITY           SKY/WX    TMP DP  RH WIND       PRES   REMARKS
CHAMPAIGN      MOSUNNY   86  65  49 VRB7      30.03F HX  88
MATTOON        MOSUNNY   84  64  50 S6        30.03F HX  85
$$

ILZ079-100>102-302100-
SOUTHWEST ILLINOIS

CITY           SKY/WX    TMP DP  RH WIND       PRES   REMARKS
CAHOKIA*       PTSUNNY   87  68  52 S8        30.01F HX  90
$$

ILZ064>066-069>071-074>076-080>082-084>086-088>090-092>094-302100-
SOUTH-CENTRAL ILLINOIS

CITY           SKY/WX    TMP DP  RH WIND       PRES   REMARKS
CARBONDALE     MOSUNNY   86  69  56 SW9       30.02F HX  90
MARION         PTSUNNY   86  73  66 S9        30.04F HX  93
$$

ILZ067-068-072-073-078-083-087-091-302100-
SOUTHEAST ILLINOIS

CITY           SKY/WX    TMP DP  RH WIND       PRES   REMARKS
LAWRENCEVILLE  PTSUNNY   86  67  52 S7        30.04F HX  89
$$

ABBREVIATIONS USED IN REMARKS
   TC - TEMPERATURE IN CELSIUS
  WCI - WIND CHILL INDEX
   HX - HEAT INDEX
  VSB - VISIBILITY
$$




USA.gov is the U.S. government's official web portal to all federal, state and local government web resources and services.